Find Starlink 4569

NORAD ID: 53687 Int'l Des: 2022-105 Owner: SPXS Country: US Constellation: starlink operational
LEOCIRCULARRETROGRADESSO

当前视图

正在加载3D地球...

About Starlink 4569

Starlink 4569 (NORAD 53687) is a starlink constellation satellite (v1.5) launched Aug 31, 2022 by SPXS of US. It operates in LEO, CIRCULAR, RETROGRADE, SSO orbit with a mass of 300.00 kg.

关于 Starlink 4569

正在加载描述...

即将过境

Passes for default location (London). Set your location on the main map for personalized predictions.

高度历史

Loading altitude history...

两行轨道根数

1 53687U 22105AR 26178.15958440 -.00000705 00000-0 -44936-4 0 9993
2 53687 97.3108 57.7226 0002448 78.6176 281.5327 15.05659128209776
Epoch: Jun 27, 2026 • Age: 6 hours

当前状态

高度 572.9 km
速度 7.57 km/s
星下点 -57.15°S, 4.52°E
发射日期 Aug 31, 2022
运行时间 3.8 years
类型 internet

技术详情

分类 Payload
质量 300.00 kg
干质量 290.00 kg
总质量 300.00 kg
长度 0.20 m
直径 2.80 m
跨度 9.00 m
形状 Box + pan
制造商 SPXS
平台类型 Starlink
阶段状态 In Orbit
所有者/国家 SPXS/US

Most Searched